Погода в Мерёже

Россия / Вологодская область     59°01′35″N   36°23′53″E
темп.,
°C
ветер,
м/с
пор.,
м/с
влажн.,
%
обл.,
%
осадки,
мм/ч
давл.,
гПа
погр.,
м
19 мая, ср
ср1900:00+18вюв312825 0.0 1008327
03:00+16вюв412837 0.0 1008309
06:00+17вюв4137695 0.0 1007367
09:00+23вюв6125138 0.0 1006600
12:00+28юв716365 0.0 10062562
15:00+29юв718345 0.0 10053710
18:00+26юв7154627 0.0 10042558
21:00+19ююв3117356 0.6 1006503
20 мая, чт
чт2000:00+15юв26954 0.0 1008121
03:00+14юв28970 0.0 1007193
06:00+16вюв2887100 0.0 1007231
09:00+18всв3482100 0.8 1006318
12:00+23вюв58605 0.0 10051050
15:00+22ююв5106884 1.1 10041241
18:00+18ююв2781100 1.2 1003373
21:00+16ю398695 2.3 1002412
21 мая, пт
пт2100:00+13юв2696100 0.0 1001135
03:00+12ююз2696100 0.0 1001136
06:00+12юз3796100 0.9 1001330
09:00+11з4893100 1.9 1003775
12:00+16з595518 0.1 10051682
15:00+18зюз68335 0.1 10072347
18:00+17зюз493642 0.0 10082769
21:00+13юз310515 0.0 1010560
22 мая, сб
сб2200:00+9юз412703 0.0 1012463
03:00+7юз311800 0.0 1013389
06:00+9юз310765 0.0 1014419
09:00+13юз48605 0.0 1015974
12:00+17юз5944100 0.0 10152241
15:00+17ю41048100 0.0 10142180
18:00+18ююз5114498 0.0 10142140
21:00+15ююз41256100 0.0 1014714
23 мая, вс
вс2300:00+13ююз4146390 0.0 1014520
03:00+9ююз258696 0.0 101492
06:00+11ю2776100 0.0 1015205
09:00+17ю4751100 0.0 1013717
12:00+21ю463698 0.0 10111842
15:00+22ююв473699 0.0 10082175
18:00+19вюв5951100 0.0 10061258
21:00+14в41095100 0.6 1002523